Regional Weather Roundup
Issued by NWS

Home | Current Version | Previous Version | Graphics & Text | Print | Product List | Glossary On
Versions: 1 2 3 4 5 6 7 8 9 10 11 12 13 14 15 16 17 18 19 20 21 22 23 24 25 26 27 28 29 30 31 32 33 34 35 36 37 38 39 40 41 42 43 44 45 46 47 48 49 50
000
ASUS43 KIND 092109
RWRIN

WEATHER ROUNDUP FOR INDIANA
NATIONAL WEATHER SERVICE INDIANAPOLIS IN
400 PM EST TUE FEB 09 2016

NOTE: "FAIR" INDICATES FEW OR NO CLOUDS BELOW 12,000 FEET WITH NO
SIGNIFICANT WEATHER AND/OR OBSTRUCTIONS TO VISIBILITY.

* - STATION DOES NOT REPORT WEATHER SUCH AS PRECIPITATION OR FOG.

+ - STATION NOT QUALITY CONTROLLED BY THE NATIONAL WEATHER SERVICE.
    USE DATA WITH CAUTION...ESPECIALLY DEWPOINT AND RELATIVE
    HUMIDITY OBSERVATIONS.

INZ001>003-010>013-019-020-092200-
NORTHWEST INDIANA

CITY           SKY/WX    TMP DP  RH WIND       PRES   REMARKS
KNOX *+        CLOUDY    21  14  73 W16       29.82R WCI   7
LA PORTE +     LGT SNOW  22  16  79 NW13G21   29.81R WCI   9
MICHIGAN CITY+ LGT SNOW  21  16  79 W13G18    29.82R WCI   9
MONTICELLO +   LGT SNOW  20  11  69 NW14      29.83R WCI   6
RENSSELAER +   LGT SNOW  21  12  68 W14G21    29.85R WCI   8
VALPARAISO     LGT SNOW  20  11  68 MISG      29.83R

$$

LMZ046-743>745-092200-
SOUTHERN LAKE MICHIGAN

STATION/POSITION TIME  TEMP    WIND        PRES    WAVE
                       AIR SEA DIR/SP/G            HT
                 (UTC) (F)     (DEG/KT/KT) (MB)    (FT)
BURNS HARBOR     2000   20     320/ 12/ 22 1010.2R
MICHIGAN CITY    2000   20     280/ 20/ 24   N/A

$$

INZ004-005-014>016-021>024-092200-
NORTH CENTRAL INDIANA

CITY           SKY/WX    TMP DP  RH WIND       PRES   REMARKS
ELKHART        LGT SNOW  25  18  74 NW18      29.76R WCI  11
GOSHEN         CLOUDY    25  16  68 NW17      29.74R WCI  12
LOGANSPORT +   FLURRIES  21  12  68 W13       29.82R WCI   9
PERU/GRISSOM   LGT SNOW  21  16  82 W16       29.78R FOG     WCI   7
ROCHESTER +    FLURRIES  27  14  59 W16       29.79R WCI  14
SOUTH BEND     LGT SNOW  21  17  84 NW15      29.78R FOG     WCI   8
WARSAW +       FLURRIES  25  19  80 NW17      29.75R WCI  11

$$

INZ006>009-017-018-025>027-092200-
NORTHEAST INDIANA

CITY           SKY/WX    TMP DP  RH WIND       PRES   REMARKS
ANGOLA *+      CLOUDY    25  19  80 NW14      29.68R WCI  13
AUBURN +       CLOUDY    28  18  64 W21       29.71R WCI  15
FORT WAYNE     FLURRIES  35  18  49 NW13G22   29.73R WCI  26
HUNTINGTON +   FLURRIES  24  16  71 W9G17     29.75R WCI  14

$$

INZ028-029-035-036-043>045-051>053-092200-
WEST CENTRAL INDIANA

CITY           SKY/WX    TMP DP  RH WIND       PRES   REMARKS
GREENCASTLE +  LGT SNOW  21  10  63 W10G18    29.86R WCI  10
LAFAYETTE      LGT SNOW  19  12  74 NW15      29.87R WCI   5
TERRE HAUTE    LGT SNOW  20  13  74 NW12      29.91R WCI   8

$$

INZ030>032-037>040-046>048-054>057-064-065-092200-
CENTRAL INDIANA

CITY           SKY/WX    TMP DP  RH WIND       PRES   REMARKS
ANDERSON       LGT SNOW  23  18  80 W12G23    29.79F WCI  12
COLUMBUS       FLURRIES  23  18  80 NW12      29.85R WCI  12
FISHERS *+     CLOUDY    21  18  86 W12G20    29.82R WCI   9
FRANKFORT +    LGT SNOW  21  11  66 W15       29.84R WCI   8
GREENWOOD *+   CLOUDY    23  18  80 W13G24    29.83  WCI  11
INDIANAPOLIS   LGT SNOW  22  15  75 W15       29.83R WCI   9
-EAGLE CREEK   LGT SNOW  21  15  78 W18G24    29.83R WCI   6
KOKOMO *+      CLOUDY    21  16  79 NW16G23   29.80R WCI   7
MARION +       CLOUDY    21  11  65 W21       29.79R WCI   5
MT COMFORT *+  CLOUDY    23  16  74 W14G21    29.81R WCI  11
SHELBYVILLE    CLOUDY    24  15  68 W14       29.81R WCI  12
ZIONSVILLE +   LGT SNOW  20  15  81 W13G21    29.82R WCI   8

$$

INZ033-034-041-042-049-050-058-059-092200-
EAST CENTRAL INDIANA

CITY           SKY/WX    TMP DP  RH WIND       PRES   REMARKS
MUNCIE         LGT SNOW  23  16  74 W15G23    29.77R WCI  10

$$

INZ060-061-067>069-081>083-085>088-092200-
SOUTHWEST INDIANA

CITY           SKY/WX    TMP DP  RH WIND       PRES   REMARKS
EVANSVILLE     LGT SNOW  24  12  60 W14G22    29.98R WCI  12
HUNTINGBURG *+ CLOUDY    21  14  73 NW17G23   29.94R WCI   7
WASHINGTON +   LGT SNOW  22  16  77 W12       29.93R WCI  10

$$

INZ062-063-066-070>080-084-089>092-092200-
SOUTH CENTRAL AND SOUTHEAST INDIANA

CITY           SKY/WX    TMP DP  RH WIND       PRES   REMARKS
BLOOMINGTON    LGT SNOW  21  14  74 W9        29.86R WCI  11
MADISON *+     CLOUDY    25  16  68 W12       29.85R WCI  14
NORTH VERNON + FLURRIES  25  18  74 CALM      29.83R
SEYMOUR +      CLOUDY    27  16  63 W16       29.86R WCI  14

$$




USA.gov is the U.S. government's official web portal to all federal, state and local government web resources and services.